{"data":{"norad_id":65416,"epoch":"2026-05-24T17:58:12.405216Z","epoch_age_seconds":100225,"freshness":"FRESH","line1":"1 65416U 25192N   26144.74875469  .00025527  00000+0  87115-3 0  9993","line2":"2 65416  53.1569 239.4557 0001009  73.9365 286.1746 15.30195542 41027","mean_motion":15.30195542,"eccentricity":0.0001009,"inclination_deg":53.1569,"raan_deg":239.4557,"arg_perigee_deg":73.9365,"mean_anomaly_deg":286.1746,"bstar":0.00087115,"rev_number":4102,"period_min":94.105619868549,"perigee_km":474.53687566921,"apogee_km":475.91988480295,"semimajor_km":6853.3653802361,"source":"CELESTRAK","updated_at":"2026-05-25T13:38:20.801625Z"}}